NOAA NWS Hourly Roundups by Site

Regional Weather Roundup for Omaha, NE

To Select Another Site Choose from List

Select Site:  

000
ASUS43 KOAX 230410
RWRNE

WEATHER ROUNDUP FOR NEBRASKA
NATIONAL WEATHER SERVICE OMAHA NE
1000 PM CST SAT JAN 22 2022

NOTES: SATELLITE DATA IS BEING USED TO AUGMENT CLOUD COVER ABOVE
       12000 FEET.
       "FAIR" INDICATES FEW OR NO CLOUDS BELOW 12,000 FEET WITH NO
       SIGNIFICANT WEATHER AND/OR OBSTRUCTIONS TO VISIBILITY.


NEZ001>004-019>022-054>056-230500-
NEBRASKA PANHANDLE

CITY           SKY/WX    TMP DP  RH WIND       PRES   REMARKS
SCOTTSBLUFF    PTCLDY    34  22  61 W9        30.19S WCI  27
ALLIANCE       PTCLDY    31  24  75 W10       30.13F WCI  22
CHADRON        CLOUDY    41  26  55 NW21G30   30.14S
GORDON         CLOUDY    39  27  62 W13G18    30.09S WCI  32
KIMBALL        PTCLDY    31  19  62 NW14      30.20R WCI  21
SIDNEY         PTCLDY    32  21  64 NW14      30.18R WCI  22
$$

NEZ057>060-069>072-079>082-230500-
SOUTHWEST NEBRASKA

CITY           SKY/WX    TMP DP  RH WIND       PRES   REMARKS
NORTH PLATTE   MOCLDY    36  23  59 W10       30.12S WCI  28
IMPERIAL       CLEAR     33  22  63 W12       30.16S WCI  24
LEXINGTON      CLOUDY    35  22  58 NW12      30.11S WCI  27
MCCOOK         CLEAR     33  19  56 W12       30.14S WCI  24
OGALLALA       PTCLDY    35  22  61 W15       30.16S WCI  25
$$

NEZ005>010-023>029-035>040-094-230500-
NORTH CENTRAL NEBRASKA

CITY           SKY/WX    TMP DP  RH WIND       PRES   REMARKS
VALENTINE      CLOUDY    47  31  53 NW15G28   30.04R
AINSWORTH      CLOUDY    45  31  59 NW17G29   30.03R
BROKEN BOW     MOCLDY    44  23  43 W18G28    30.06S
O`NEILL        CLOUDY    45  32  59 NW28G35   30.00R
ORD            MOCLDY    43  23  45 W13       30.02R
THEDFORD       CLOUDY    37  26  65 W9        30.08S WCI  30
$$

NEZ041-046>049-061>064-073>077-083>087-230500-
SOUTH CENTRAL NEBRASKA

CITY           SKY/WX    TMP DP  RH WIND       PRES   REMARKS
GRAND ISLAND   CLOUDY    45  24  43 W17       30.04F
AURORA         CLOUDY    42  23  45 W14       30.03F
HASTINGS       PTCLDY    40  21  46 W16       30.06F WCI  31
HEBRON         CLOUDY    40  25  55 SW13G18   30.07F WCI  32
HOLDREGE       PTCLDY    38  22  52 W10       30.09F WCI  30
KEARNEY        MOCLDY    42  23  46 NW16      30.08F
YORK           CLOUDY    41  21  45 W17       30.02S
$$

NEZ011>018-030>034-042>045-230500-
NORTHEAST NEBRASKA

CITY           SKY/WX    TMP DP  RH WIND       PRES   REMARKS
NORFOLK        CLOUDY    46  25  43 W9        29.95F
ALBION         CLOUDY    48  25  40 W14G20    29.99S
BLAIR          CLOUDY    44  24  45 W18G25    29.95S
COLUMBUS       CLOUDY    45  24  43 W15G22    29.99S
FREMONT        CLOUDY    48  23  38 W15G24    29.96S
TEKAMAH        CLOUDY    46  24  42 W14       29.95R
WAYNE          CLOUDY    44  33  65 NW9       29.94S
$$

NEZ050>053-065>068-078-088>093-230500-
SOUTHEAST NEBRASKA

CITY           SKY/WX    TMP DP  RH WIND       PRES   REMARKS
LINCOLN        CLOUDY    46  20  35 W22G36    30.01F
OMAHA EPPLEY   CLOUDY    46  22  38 W20G29    29.95F
BEATRICE       CLOUDY    44  24  45 SW17      30.03F
FALLS CITY     CLOUDY    44  24  45 SW16G23   30.04F
NEBRASKA CITY  CLOUDY    43  25  49 W20G25    30.00F
PLATTSMOUTH    CLOUDY    45  24  44 SW22G28   29.97F
$$

NEZ044-045-051>053-067-230500-
OMAHA AREA

CITY           SKY/WX    TMP DP  RH WIND       PRES   REMARKS
OMAHA EPPLEY   CLOUDY    46  22  38 W20G29    29.95F
BLAIR          CLOUDY    44  24  45 W18G25    29.95S
FREMONT        CLOUDY    48  23  38 W15G24    29.96S
MILLARD        CLOUDY    46  21  36 W13G20    29.97F
OFFUTT AFB     MOCLDY    45  21  39 W21G30    29.98F
PLATTSMOUTH    CLOUDY    45  24  44 SW22G28   29.97F
WAHOO          CLOUDY    45  21  38 W17G25    29.97F
$$


 

View Past Reports for Omaha, NE.

Products Courtesy of NOAA-NWS
NWS Information Parsing Script by Ken True at Saratoga Weather - Script by SE Lincoln Weather.